When you browse on this site, cookies collect data to enhance your experience and personalize the content and advertising you see.
Visit our Privacy Policy to learn more. By continuing to use the site, you agree to this use of cookies and data.
  • In Österreich
  • Länderverzeichnis
  • Für 7 Tage
  • Wassertemperatur
  • Wetterkarte
  • News
  • Widgets
  • user-avatar
    Anmelden

    Stündliche Wetter Lyuscha

    Heute, 18 Oktober, Freitag

    Zeit Temperatur Niederschläge Wind Luftdruck Luftfeuchtigkeit
    00:00 +11°C° 0 mm 1 m/S 751 mmHg 82%
    01:00 +11°C° 0 mm 1 m/S 751 mmHg 82%
    02:00 +11°C° 0 mm 1 m/S 751 mmHg 82%
    03:00 +10°C° 0 mm 1 m/S 751 mmHg 82%
    04:00 +10°C° 0 mm 1 m/S 751 mmHg 82%
    05:00 +10°C° 0 mm 1 m/S 751 mmHg 82%
    06:00 +10°C° 0 mm 1 m/S 751 mmHg 81%
    07:00 +10°C° 0 mm 2 m/S 751 mmHg 80%
    08:00 +10°C° 0 mm 2 m/S 751 mmHg 79%
    09:00 +13°C° 0 mm 2 m/S 751 mmHg 72%
    10:00 +15°C° 0 mm 2 m/S 751 mmHg 65%
    11:00 +17°C° 0 mm 2 m/S 751 mmHg 58%
    12:00 +17°C° 0 mm 2 m/S 750 mmHg 57%
    13:00 +18°C° 0 mm 2 m/S 750 mmHg 55%
    14:00 +19°C° 0 mm 2 m/S 750 mmHg 54%
    15:00 +18°C° 0 mm 2 m/S 750 mmHg 60%
    16:00 +17°C° 0 mm 2 m/S 749 mmHg 66%
    17:00 +15°C° 0 mm 2 m/S 749 mmHg 71%
    18:00 +15°C° 0 mm 2 m/S 749 mmHg 75%
    19:00 +14°C° 0 mm 2 m/S 749 mmHg 78%
    20:00 +14°C° 0 mm 2 m/S 749 mmHg 82%
    21:00 +13°C° 0 mm 2 m/S 749 mmHg 85%
    22:00 +13°C° 0 mm 2 m/S 749 mmHg 87%
    23:00 +13°C° 0 mm 2 m/S 749 mmHg 90%

    Morgen, 19 Oktober, Samstag

    Zeit Temperatur Niederschläge Wind Luftdruck Luftfeuchtigkeit
    00:00 +13°C° 0 mm 2 m/S 749 mmHg 89%
    01:00 +13°C° 0 mm 2 m/S 749 mmHg 88%
    02:00 +13°C° 0 mm 2 m/S 749 mmHg 87%
    03:00 +13°C° 0 mm 2 m/S 749 mmHg 85%
    04:00 +14°C° 0 mm 2 m/S 749 mmHg 83%
    05:00 +14°C° 0 mm 2 m/S 749 mmHg 80%
    06:00 +14°C° 0 mm 2 m/S 749 mmHg 78%
    07:00 +14°C° 0 mm 2 m/S 749 mmHg 76%
    08:00 +14°C° 0 mm 2 m/S 749 mmHg 74%
    09:00 +15°C° 0 mm 2 m/S 749 mmHg 70%
    10:00 +16°C° 0 mm 3 m/S 749 mmHg 65%
    11:00 +18°C° 0 mm 3 m/S 749 mmHg 60%
    12:00 +18°C° 0 mm 3 m/S 749 mmHg 60%
    13:00 +18°C° 0 mm 3 m/S 749 mmHg 60%
    14:00 +19°C° 0 mm 3 m/S 749 mmHg 59%
    15:00 +18°C° 0 mm 2 m/S 749 mmHg 64%
    16:00 +17°C° 0 mm 2 m/S 749 mmHg 68%
    17:00 +16°C° 0 mm 2 m/S 749 mmHg 72%
    18:00 +16°C° 0 mm 2 m/S 749 mmHg 74%
    19:00 +15°C° 0 mm 2 m/S 749 mmHg 76%
    20:00 +14°C° 0 mm 2 m/S 749 mmHg 78%
    21:00 +14°C° 0 mm 2 m/S 749 mmHg 78%
    22:00 +14°C° 0 mm 2 m/S 749 mmHg 78%
    23:00 +14°C° 0 mm 2 m/S 749 mmHg 79%

    übermorgen, 20 Oktober, Sonntag

    Zeit Temperatur Niederschläge Wind Luftdruck Luftfeuchtigkeit
    00:00 +14°C° 0 mm 2 m/S 749 mmHg 79%
    01:00 +14°C° 0 mm 2 m/S 749 mmHg 80%
    02:00 +13°C° 0 mm 3 m/S 749 mmHg 81%
    03:00 +13°C° 0 mm 2 m/S 749 mmHg 82%
    04:00 +13°C° 0 mm 2 m/S 749 mmHg 84%
    05:00 +13°C° 0 mm 2 m/S 749 mmHg 85%
    06:00 +13°C° 0 mm 2 m/S 749 mmHg 83%
    07:00 +13°C° 0 mm 2 m/S 749 mmHg 81%
    08:00 +13°C° 0 mm 2 m/S 749 mmHg 80%
    09:00 +14°C° 0 mm 3 m/S 750 mmHg 73%
    10:00 +17°C° 0 mm 3 m/S 750 mmHg 67%
    11:00 +18°C° 0 mm 3 m/S 750 mmHg 61%
    12:00 +19°C° 0 mm 3 m/S 750 mmHg 60%
    13:00 +20°C° 0 mm 3 m/S 750 mmHg 58%
    14:00 +20°C° 0 mm 3 m/S 750 mmHg 57%
    15:00 +19°C° 0 mm 3 m/S 749 mmHg 62%
    16:00 +18°C° 0 mm 2 m/S 749 mmHg 67%
    17:00 +17°C° 0 mm 2 m/S 749 mmHg 72%
    18:00 +16°C° 0 mm 2 m/S 749 mmHg 75%
    19:00 +16°C° 0 mm 2 m/S 750 mmHg 78%
    20:00 +15°C° 0 mm 2 m/S 750 mmHg 80%
    21:00 +15°C° 0 mm 2 m/S 750 mmHg 82%
    22:00 +14°C° 0 mm 2 m/S 750 mmHg 83%
    23:00 +14°C° 0 mm 2 m/S 750 mmHg 84%

    21 Oktober, Montag

    Zeit Temperatur Niederschläge Wind Luftdruck Luftfeuchtigkeit
    00:00 +14°C° 0 mm 2 m/S 750 mmHg 84%
    01:00 +13°C° 0 mm 2 m/S 750 mmHg 85%
    02:00 +13°C° 0 mm 2 m/S 750 mmHg 85%
    03:00 +13°C° 0 mm 2 m/S 750 mmHg 85%
    04:00 +13°C° 0 mm 2 m/S 749 mmHg 85%
    05:00 +12°C° 0 mm 3 m/S 749 mmHg 85%
    06:00 +12°C° 0 mm 3 m/S 749 mmHg 83%
    07:00 +12°C° 0 mm 3 m/S 749 mmHg 81%
    08:00 +12°C° 0 mm 3 m/S 749 mmHg 79%
    09:00 +14°C° 0 mm 3 m/S 749 mmHg 72%
    10:00 +17°C° 0 mm 4 m/S 749 mmHg 65%
    11:00 +19°C° 0 mm 4 m/S 749 mmHg 58%
    12:00 +20°C° 0 mm 4 m/S 749 mmHg 55%
    13:00 +21°C° 0 mm 4 m/S 749 mmHg 52%
    14:00 +22°C° 0 mm 4 m/S 748 mmHg 49%
    15:00 +21°C° 0 mm 4 m/S 748 mmHg 55%
    16:00 +20°C° 0 mm 3 m/S 748 mmHg 60%
    17:00 +18°C° 0 mm 2 m/S 748 mmHg 66%
    18:00 +17°C° 0 mm 2 m/S 748 mmHg 68%
    19:00 +17°C° 0 mm 2 m/S 748 mmHg 71%
    20:00 +16°C° 0 mm 2 m/S 748 mmHg 73%
    21:00 +15°C° 0 mm 2 m/S 748 mmHg 75%
    22:00 +15°C° 0 mm 2 m/S 748 mmHg 78%
    23:00 +14°C° 0 mm 2 m/S 748 mmHg 80%

    22 Oktober, Dienstag

    Zeit Temperatur Niederschläge Wind Luftdruck Luftfeuchtigkeit
    00:00 +14°C° 0 mm 2 m/S 748 mmHg 82%
    01:00 +13°C° 0 mm 3 m/S 748 mmHg 85%
    02:00 +12°C° 0 mm 3 m/S 748 mmHg 87%
    03:00 +12°C° 0 mm 3 m/S 749 mmHg 90%
    04:00 +12°C° 0 mm 3 m/S 749 mmHg 92%
    05:00 +12°C° 0 mm 3 m/S 750 mmHg 95%
    06:00 +12°C° 0 mm 4 m/S 750 mmHg 89%
    07:00 +12°C° 0 mm 5 m/S 751 mmHg 83%
    08:00 +11°C° 0 mm 6 m/S 752 mmHg 77%
    09:00 +13°C° 0 mm 5 m/S 752 mmHg 74%
    10:00 +13°C° 0 mm 5 m/S 753 mmHg 70%
    11:00 +13°C° 0 mm 5 m/S 754 mmHg 66%
    12:00 +14°C° 0 mm 5 m/S 754 mmHg 64%
    13:00 +14°C° 0 mm 4 m/S 754 mmHg 62%
    14:00 +14°C° 0 mm 4 m/S 755 mmHg 60%
    15:00 +13°C° 0 mm 3 m/S 755 mmHg 65%
    16:00 +13°C° 0 mm 2 m/S 755 mmHg 70%
    17:00 +12°C° 0 mm 2 m/S 756 mmHg 74%
    18:00 +11°C° 0 mm 1 m/S 756 mmHg 78%
    19:00 +11°C° 0 mm 1 m/S 756 mmHg 82%
    20:00 +10°C° 0 mm 1 m/S 756 mmHg 85%
    21:00 +10°C° 0 mm 1 m/S 757 mmHg 87%
    22:00 +9°C° 0 mm 1 m/S 757 mmHg 88%
    23:00 +9°C° 0 mm 1 m/S 757 mmHg 90%

    23 Oktober, Mittwoch

    Zeit Temperatur Niederschläge Wind Luftdruck Luftfeuchtigkeit
    00:00 +9°C° 0 mm 1 m/S 757 mmHg 91%
    01:00 +8°C° 0 mm 1 m/S 757 mmHg 92%
    02:00 +8°C° 0 mm 1 m/S 757 mmHg 92%
    03:00 +8°C° 0 mm 1 m/S 757 mmHg 93%
    04:00 +8°C° 0 mm 1 m/S 757 mmHg 93%
    05:00 +7°C° 0 mm 1 m/S 757 mmHg 94%
    06:00 +8°C° 0 mm 1 m/S 757 mmHg 93%
    07:00 +8°C° 0 mm 1 m/S 757 mmHg 93%
    08:00 +8°C° 0 mm 1 m/S 758 mmHg 93%
    09:00 +9°C° 0 mm 1 m/S 757 mmHg 85%
    10:00 +10°C° 0 mm 2 m/S 757 mmHg 77%
    11:00 +13°C° 0 mm 2 m/S 757 mmHg 70%
    12:00 +14°C° 0 mm 2 m/S 757 mmHg 66%
    13:00 +14°C° 0 mm 2 m/S 757 mmHg 62%
    14:00 +15°C° 0 mm 2 m/S 756 mmHg 58%
    15:00 +14°C° 0 mm 2 m/S 756 mmHg 63%
    16:00 +12°C° 0 mm 1 m/S 755 mmHg 68%
    17:00 +11°C° 0 mm 1 m/S 755 mmHg 73%
    18:00 +11°C° 0 mm 1 m/S 755 mmHg 76%
    19:00 +10°C° 0 mm 1 m/S 755 mmHg 78%
    20:00 +8°C° 0 mm 2 m/S 755 mmHg 81%
    21:00 +9°C° 0 mm 2 m/S 755 mmHg 79%
    22:00 +9°C° 0 mm 2 m/S 755 mmHg 77%
    23:00 +9°C° 0 mm 2 m/S 755 mmHg 75%
    Mehr zeigen